Location: Newark
(21.0319°N, 105.8400°E)
Time: 10:04:16
(UTC+00:00)

ISS - Visible Passes

Search period start: 09 December 2019 00:00
Search period end: 19 December 2019 00:00
Orbit: 411 x 421 km, 51.6° (Epoch: 09 December)

Date Brightness Start Highest point End Pass type
(mag) Time Alt. Az. Time Alt. Az. Time Alt. Az.
10 Dec -1.4 11:20:47 10° N 11:21:08 11° N 11:21:08 11° N visible
11 Dec -1.5 12:07:59 10° NW 12:09:16 21° WNW 12:09:16 21° WNW visible
12 Dec -3.9 11:19:29 10° NNW 11:22:49 65° NE 11:25:13 17° SE visible
13 Dec -0.4 12:09:26 10° W 12:10:47 12° SW 12:12:08 10° SSW visible
14 Dec -1.3 11:19:35 10° WNW 11:22:25 25° SW 11:25:13 10° S visible
